• In Hungary
  • List of Countries
  • For 7 days
  • Water Temperature
  • Satellite Maps
  • Weather Map
  • News
  • Weather Widgets
  • user-avatar
    Login

    Hourly Weather Podelniska

    Today, 17 July, Tuesday

    Time Temperature Precipitation Wind Pressure Humidity
    00:00 +16°C° 0 mm 1 mps 729 mmHg 91%
    01:00 +16°C° 0 mm 1 mps 729 mmHg 92%
    02:00 +16°C° 0 mm 2 mps 729 mmHg 93%
    03:00 +16°C° 0 mm 2 mps 729 mmHg 94%
    04:00 +16°C° 0 mm 2 mps 728 mmHg 95%
    05:00 +17°C° 0.1 mm 2 mps 728 mmHg 93%
    06:00 +18°C° 0.1 mm 2 mps 728 mmHg 91%
    07:00 +19°C° 0.1 mm 3 mps 728 mmHg 89%
    08:00 +19°C° 0.5 mm 3 mps 728 mmHg 88%
    09:00 +19°C° 0.5 mm 3 mps 728 mmHg 88%
    10:00 +20°C° 0.5 mm 4 mps 728 mmHg 87%
    11:00 +20°C° 0.6 mm 4 mps 728 mmHg 86%
    12:00 +20°C° 0.6 mm 4 mps 728 mmHg 86%
    13:00 +20°C° 0.6 mm 5 mps 728 mmHg 86%
    14:00 +20°C° 0.5 mm 4 mps 728 mmHg 86%
    15:00 +20°C° 0.5 mm 4 mps 728 mmHg 85%
    16:00 +20°C° 0.5 mm 4 mps 728 mmHg 85%
    17:00 +20°C° 0.5 mm 4 mps 728 mmHg 88%
    18:00 +19°C° 0.5 mm 4 mps 728 mmHg 90%
    19:00 +19°C° 0.5 mm 3 mps 728 mmHg 93%
    20:00 +18°C° 0.3 mm 3 mps 728 mmHg 94%
    21:00 +18°C° 0.3 mm 3 mps 728 mmHg 95%
    22:00 +18°C° 0.3 mm 3 mps 728 mmHg 96%
    23:00 +18°C° 0.3 mm 3 mps 728 mmHg 96%

    Tomorrow, 18 July, Wednesday

    Time Temperature Precipitation Wind Pressure Humidity
    00:00 +18°C° 0.3 mm 3 mps 728 mmHg 96%
    01:00 +18°C° 0.3 mm 3 mps 728 mmHg 96%
    02:00 +18°C° 0.5 mm 3 mps 728 mmHg 96%
    03:00 +18°C° 0.5 mm 3 mps 728 mmHg 96%
    04:00 +18°C° 0.5 mm 4 mps 727 mmHg 96%
    05:00 +18°C° 2.5 mm 4 mps 727 mmHg 96%
    06:00 +18°C° 2.5 mm 4 mps 727 mmHg 96%
    07:00 +17°C° 2.5 mm 5 mps 727 mmHg 96%
    08:00 +17°C° 3.2 mm 5 mps 728 mmHg 96%
    09:00 +17°C° 3.2 mm 5 mps 728 mmHg 96%
    10:00 +17°C° 3.2 mm 5 mps 728 mmHg 96%
    11:00 +19°C° 1.2 mm 4 mps 728 mmHg 95%
    12:00 +19°C° 1.2 mm 4 mps 728 mmHg 95%
    13:00 +19°C° 1.2 mm 4 mps 729 mmHg 94%
    14:00 +19°C° 0.5 mm 4 mps 729 mmHg 94%
    15:00 +19°C° 0.5 mm 4 mps 729 mmHg 94%
    16:00 +19°C° 0.5 mm 4 mps 729 mmHg 94%
    17:00 +19°C° 0.8 mm 4 mps 729 mmHg 95%
    18:00 +19°C° 0.8 mm 4 mps 729 mmHg 95%
    19:00 +19°C° 0.8 mm 4 mps 729 mmHg 95%
    20:00 +19°C° 0.7 mm 4 mps 730 mmHg 96%
    21:00 +19°C° 0.7 mm 4 mps 730 mmHg 96%
    22:00 +19°C° 0.7 mm 4 mps 730 mmHg 96%
    23:00 +19°C° 0.7 mm 4 mps 730 mmHg 96%

    Day after tomorrow, 19 July, Thursday

    Time Temperature Precipitation Wind Pressure Humidity
    00:00 +18°C° 0.7 mm 4 mps 730 mmHg 96%
    01:00 +18°C° 0.7 mm 3 mps 730 mmHg 97%
    02:00 +18°C° 0.6 mm 3 mps 730 mmHg 97%
    03:00 +18°C° 0.6 mm 3 mps 731 mmHg 97%
    04:00 +18°C° 0.6 mm 3 mps 731 mmHg 97%
    05:00 +18°C° 0.5 mm 3 mps 731 mmHg 96%
    06:00 +18°C° 0.5 mm 3 mps 731 mmHg 96%
    07:00 +18°C° 0.5 mm 3 mps 731 mmHg 96%
    08:00 +18°C° 0.5 mm 3 mps 732 mmHg 96%
    09:00 +19°C° 0.5 mm 3 mps 732 mmHg 95%
    10:00 +19°C° 0.5 mm 3 mps 732 mmHg 95%
    11:00 +19°C° 0.2 mm 3 mps 732 mmHg 94%
    12:00 +19°C° 0.2 mm 3 mps 732 mmHg 93%
    13:00 +19°C° 0.2 mm 3 mps 732 mmHg 92%
    14:00 +19°C° 0.1 mm 3 mps 732 mmHg 91%
    15:00 +19°C° 0.1 mm 3 mps 732 mmHg 91%
    16:00 +20°C° 0.1 mm 3 mps 733 mmHg 91%
    17:00 +19°C° 0 mm 3 mps 733 mmHg 91%
    18:00 +19°C° 0 mm 2 mps 733 mmHg 92%
    19:00 +19°C° 0 mm 2 mps 733 mmHg 92%
    20:00 +19°C° 0.1 mm 2 mps 733 mmHg 94%
    21:00 +18°C° 0.1 mm 2 mps 733 mmHg 95%
    22:00 +18°C° 0.1 mm 2 mps 733 mmHg 96%
    23:00 +18°C° 0 mm 2 mps 733 mmHg 96%

    20 July, Friday

    Time Temperature Precipitation Wind Pressure Humidity
    00:00 +18°C° 0 mm 2 mps 733 mmHg 97%
    01:00 +17°C° 0 mm 2 mps 733 mmHg 97%
    02:00 +17°C° 0 mm 2 mps 733 mmHg 97%
    03:00 +17°C° 0 mm 2 mps 733 mmHg 97%
    04:00 +17°C° 0 mm 2 mps 733 mmHg 97%
    05:00 +18°C° 0 mm 2 mps 733 mmHg 96%
    06:00 +18°C° 0 mm 2 mps 733 mmHg 94%
    07:00 +19°C° 0 mm 2 mps 733 mmHg 92%
    08:00 +20°C° 0 mm 2 mps 733 mmHg 88%
    09:00 +21°C° 0 mm 2 mps 733 mmHg 83%
    10:00 +21°C° 0 mm 2 mps 733 mmHg 79%
    11:00 +24°C° 0 mm 3 mps 733 mmHg 72%
    12:00 +25°C° 0 mm 3 mps 733 mmHg 66%
    13:00 +26°C° 0 mm 3 mps 733 mmHg 59%
    14:00 +26°C° 0 mm 3 mps 733 mmHg 59%
    15:00 +26°C° 0 mm 3 mps 733 mmHg 58%
    16:00 +26°C° 0 mm 3 mps 733 mmHg 57%
    17:00 +25°C° 0 mm 3 mps 732 mmHg 63%
    18:00 +24°C° 0 mm 2 mps 732 mmHg 69%
    19:00 +22°C° 0 mm 1 mps 732 mmHg 75%
    20:00 +21°C° 0 mm 1 mps 732 mmHg 79%
    21:00 +20°C° 0 mm 1 mps 732 mmHg 82%
    22:00 +19°C° 0 mm 1 mps 733 mmHg 86%
    23:00 +18°C° 0 mm 1 mps 732 mmHg 87%

    21 July, Saturday

    Time Temperature Precipitation Wind Pressure Humidity
    00:00 +18°C° 0 mm 1 mps 732 mmHg 88%
    01:00 +16°C° 0 mm 1 mps 732 mmHg 89%
    02:00 +16°C° 0 mm 1 mps 732 mmHg 90%
    03:00 +16°C° 0 mm 1 mps 732 mmHg 90%
    04:00 +16°C° 0 mm 1 mps 732 mmHg 91%
    05:00 +18°C° 0 mm 1 mps 732 mmHg 86%
    06:00 +18°C° 0 mm 0 mps 732 mmHg 80%
    07:00 +20°C° 0 mm 0 mps 732 mmHg 75%
    08:00 +22°C° 0 mm 0 mps 732 mmHg 68%
    09:00 +23°C° 0 mm 0 mps 732 mmHg 62%
    10:00 +25°C° 0 mm 0 mps 732 mmHg 55%
    11:00 +28°C° 0 mm 1 mps 732 mmHg 54%
    12:00 +28°C° 0 mm 1 mps 732 mmHg 52%
    13:00 +28°C° 0 mm 1 mps 732 mmHg 50%
    14:00 +28°C° 0.5 mm 1 mps 731 mmHg 53%
    15:00 +28°C° 0.5 mm 1 mps 731 mmHg 55%
    16:00 +27°C° 0.5 mm 1 mps 731 mmHg 58%
    17:00 +26°C° 0.6 mm 1 mps 731 mmHg 63%
    18:00 +24°C° 0.6 mm 1 mps 731 mmHg 69%
    19:00 +23°C° 0.6 mm 1 mps 730 mmHg 74%
    20:00 +22°C° 0.1 mm 1 mps 730 mmHg 77%
    21:00 +21°C° 0.1 mm 1 mps 730 mmHg 80%
    22:00 +20°C° 0.1 mm 1 mps 730 mmHg 82%
    23:00 +20°C° 0.8 mm 1 mps 730 mmHg 84%

    22 July, Sunday

    Time Temperature Precipitation Wind Pressure Humidity
    00:00 +20°C° 0.8 mm 1 mps 730 mmHg 86%
    01:00 +19°C° 0.8 mm 1 mps 730 mmHg 88%
    02:00 +19°C° 0.2 mm 1 mps 730 mmHg 89%
    03:00 +19°C° 0.2 mm 1 mps 730 mmHg 89%
    04:00 +19°C° 0.2 mm 1 mps 729 mmHg 90%
    05:00 +20°C° 0.2 mm 1 mps 729 mmHg 89%
    06:00 +20°C° 0.2 mm 1 mps 730 mmHg 87%
    07:00 +20°C° 0.2 mm 2 mps 730 mmHg 86%
    08:00 +20°C° 0.9 mm 2 mps 730 mmHg 85%
    09:00 +21°C° 0.9 mm 2 mps 730 mmHg 84%
    10:00 +21°C° 0.9 mm 3 mps 730 mmHg 83%
    11:00 +21°C° 0.8 mm 3 mps 730 mmHg 84%
    12:00 +21°C° 0.8 mm 3 mps 730 mmHg 84%
    13:00 +21°C° 0.8 mm 3 mps 730 mmHg 84%
    14:00 +21°C° 0.6 mm 3 mps 730 mmHg 86%
    15:00 +20°C° 0.6 mm 2 mps 730 mmHg 87%
    16:00 +20°C° 0.6 mm 2 mps 730 mmHg 88%
    17:00 +19°C° 0.5 mm 2 mps 731 mmHg 90%
    18:00 +19°C° 0.5 mm 2 mps 731 mmHg 91%
    19:00 +18°C° 0.5 mm 2 mps 731 mmHg 93%
    20:00 +18°C° 0.4 mm 2 mps 731 mmHg 93%
    21:00 +18°C° 0.4 mm 2 mps 731 mmHg 94%
    22:00 +17°C° 0.4 mm 2 mps 732 mmHg 94%
    23:00 +17°C° 0.3 mm 2 mps 732 mmHg 94%
    Show more